Gwinn, MI

9:21 PM EDT on August 27, 2016 (GMT -0400)
Sawyer International

Weather History for KSAW - January, 2014

Change the Weather History Date:

Monday, January 6, 2014

  Actual Average (KESC) Record (KESC)
Temperature  
Mean Temperature -10 °F -  
Max Temperature -3 °F 24 °F 48 °F (2012)
Min Temperature -16 °F 8 °F -16 °F (2009)
Degree Days  
Heating Degree Days 74    
Moisture  
Dew Point -17 °F    
Average Humidity 67    
Maximum Humidity 78    
Minimum Humidity 58    
Precipitation  
Precipitation 0.00 in - - ()
Sea Level Pressure  
Sea Level Pressure 29.82 in    
Wind  
Wind Speed 13 mph (WNW)    
Max Wind Speed 20 mph    
Max Gust Speed 23 mph    
Visibility 8 miles    
Events      
Averages and records for this station are not official NWS values.
T = Trace of Precipitation, MM = Missing Value Source: NWS Daily Summary

Daily Weather History Graph

Daily Weather History Graph

Search for Another Location

Airport or City:

Trip Planner

Search our weather history database for the weather conditions in past years. The results will help you decide how hot, cold, wet, or windy it might be!

Date:

Astronomy

Jan. 06, 2014 Rise Set
Actual Time 8:32 AM EST 5:18 PM EST
Civil Twilight 7:57 AM EST 5:53 PM EST
Nautical Twilight 7:20 AM EST 6:31 PM EST
Astronomical Twilight 6:43 AM EST 7:07 PM EST
Moon 11:25 AM EST (1/6) No Moon Set
Length of Visible Light 9h 55m
Length of Day
8h 46m
Waxing Crescent, 34% of the Moon is Illuminated
Jan 6
Waxing Crescent
Jan 7
First Quarter
Jan 15
Full
Jan 24
Last Quarter
Jan 30
New

Hourly Weather History & Observations

Time (EST) Temp. Windchill Dew Point Humidity Pressure Visibility Wind Dir Wind Speed Gust Speed Precip Events Conditions
12:17 AM -3.5 °F -23.1 °F -9.4 °F 76% 29.88 in 7.0 mi NW 13.8 mph 19.6 mph N/A   Overcast
12:37 AM -4.0 °F -23.7 °F -9.8 °F 76% 29.87 in 5.0 mi NW 13.8 mph - N/A   Haze
12:57 AM -4.0 °F -23.7 °F -9.6 °F 77% 29.85 in 4.0 mi NW 13.8 mph - N/A   Haze
1:17 AM -4.0 °F -23.0 °F -9.4 °F 78% 29.85 in 4.0 mi NW 12.7 mph 18.4 mph N/A   Haze
1:37 AM -3.6 °F -22.5 °F -9.4 °F 76% 29.84 in 4.0 mi NW 12.7 mph - N/A   Haze
1:56 AM -3.6 °F -23.3 °F -9.4 °F 76% 29.84 in 5.0 mi NW 13.8 mph - N/A   Haze
2:17 AM -3.3 °F -22.8 °F -9.6 °F 74% 29.84 in 5.0 mi NW 13.8 mph - N/A   Haze
2:37 AM -3.5 °F -24.5 °F -9.9 °F 74% 29.84 in 5.0 mi NW 16.1 mph 21.9 mph N/A   Haze
2:57 AM -3.5 °F -23.1 °F -10.5 °F 72% 29.84 in 7.0 mi NNW 13.8 mph 19.6 mph N/A   Overcast
3:17 AM -4.4 °F -24.2 °F -11.2 °F 72% 29.84 in 7.0 mi NW 13.8 mph - N/A   Overcast
3:36 AM -5.1 °F -25.1 °F -11.6 °F 74% 29.84 in 7.0 mi NW 13.8 mph - N/A   Mostly Cloudy
3:57 AM -5.4 °F -27.0 °F -13.0 °F 70% 29.83 in 7.0 mi NW 16.1 mph 21.9 mph N/A   Overcast
4:17 AM -6.3 °F -26.7 °F -14.3 °F 69% 29.83 in 10.0 mi NW 13.8 mph 18.4 mph N/A   Overcast
4:36 AM -6.7 °F -29.3 °F -14.8 °F 68% 29.83 in 7.0 mi NW 17.3 mph 21.9 mph N/A   Overcast
4:57 AM -7.1 °F -29.1 °F -15.5 °F 67% 29.83 in 10.0 mi NW 16.1 mph 23.0 mph N/A   Overcast
5:17 AM -7.2 °F -30.7 °F -16.2 °F 65% 29.83 in 10.0 mi NW 18.4 mph - N/A   Overcast
5:37 AM -7.4 °F -31.5 °F -16.6 °F 64% 29.83 in 10.0 mi NW 19.6 mph 23.0 mph N/A   Overcast
5:57 AM -7.6 °F -30.5 °F -17.0 °F 64% 29.83 in 7.0 mi NW 17.3 mph 23.0 mph N/A   Overcast
6:55 AM -9.4 °F -32.1 °F -18.4 °F 65% 29.84 in 7.0 mi NW 16.1 mph - N/A   Overcast
7:55 AM -11.2 °F -30.1 °F -18.4 °F 70% 29.83 in 10.0 mi NW 10.4 mph 16.1 mph N/A   Clear
8:55 AM -11.2 °F -24.8 °F -18.4 °F 70% 29.83 in 10.0 mi NW 5.8 mph - N/A   Clear
9:55 AM -11.2 °F -29.0 °F -20.2 °F 64% 29.83 in 10.0 mi West 9.2 mph - N/A   Clear
10:55 AM -11.2 °F -33.7 °F -20.2 °F 64% 29.82 in 7.0 mi WNW 15.0 mph - N/A   Clear
11:55 AM -9.4 °F -31.4 °F -20.2 °F 59% 29.80 in 10.0 mi WNW 15.0 mph 18.4 mph N/A   Mostly Cloudy
12:50 PM -7.6 °F -29.1 °F -18.4 °F 59% 29.79 in 10.0 mi West 15.0 mph - N/A   Overcast
1:55 PM -7.6 °F -26.6 °F -18.4 °F 59% 29.79 in 10.0 mi NW 11.5 mph 16.1 mph N/A   Overcast
2:55 PM -5.8 °F -27.5 °F -16.6 °F 60% 29.78 in 10.0 mi NW 16.1 mph 21.9 mph N/A   Mostly Cloudy
3:50 PM -7.6 °F -28.3 °F -18.4 °F 59% 29.80 in 10.0 mi West 13.8 mph - N/A   Mostly Cloudy
4:55 PM -9.4 °F -29.8 °F -20.2 °F 59% 29.80 in 10.0 mi West 12.7 mph 19.6 mph N/A   Scattered Clouds
5:50 PM -11.2 °F -29.0 °F -22.0 °F 59% 29.81 in 10.0 mi West 9.2 mph 20.7 mph N/A   Clear
6:55 PM -14.8 °F -35.6 °F -23.8 °F 64% 29.82 in 10.0 mi West 11.5 mph 19.6 mph N/A   Clear
7:55 PM -14.8 °F -36.6 °F -25.6 °F 58% 29.82 in 10.0 mi West 12.7 mph - N/A   Clear
8:55 PM -16.6 °F -36.8 °F -25.6 °F 64% 29.81 in 10.0 mi WSW 10.4 mph - N/A   Overcast
9:55 PM -14.8 °F -33.5 °F -23.8 °F 64% 29.80 in 10.0 mi WSW 9.2 mph - N/A   Overcast
10:17 PM -13.5 °F -31.9 °F -22.2 °F 65% 29.79 in 10.0 mi West 9.2 mph - N/A   Overcast
10:37 PM -13.4 °F -33.8 °F -22.2 °F 65% 29.79 in 10.0 mi West 11.5 mph 18.4 mph N/A   Overcast
10:56 PM -13.9 °F -34.5 °F -22.2 °F 66% 29.79 in 10.0 mi West 11.5 mph 17.3 mph N/A   Overcast
11:17 PM -14.8 °F -35.6 °F -23.1 °F 66% 29.79 in 10.0 mi West 11.5 mph 16.1 mph N/A   Scattered Clouds
11:37 PM -15.3 °F -29.8 °F -23.8 °F 66% 29.79 in 10.0 mi West 5.8 mph - N/A   Scattered Clouds
11:56 PM -15.2 °F -33.9 °F -24.3 °F 63% 29.79 in 10.0 mi WSW 9.2 mph 19.6 mph N/A   Clear